[[{"header":{"parameterUnit":"m.s-1","parameterCategory":1,"la1":30.2991,"la2":30.254,"lo1":-89.0895,"lo2":-89.0444,"dy":0.0017,"dx":0.0017,"nx":28,"ny":28,"refTime":"2023-08-09T03:00:00:Z","depth":0,"parameterNumber":2,"parameterNumberName":"U-component_of_WINDS"},"data":[0,0,0,0,0,0,0,0,0,0,0,0,0,0,0,0,0,0,0,0,0,0,0,0,0,0,0,0,0,0,0,0,0,0,0,0,0,0,0,0,0,0,0,0,0,0,0,0,0,0,0,0,0,0,0,0,0,0,5.0874,5.0875,0,5.0923,5.0924,5.0925,5.0923,5.0922,5.0921,5.0921,5.0972,5.0974,5.0976,0,0,0,0,0,0,0,0,0,0,0,0,0,5.078,5.0782,5.0874,5.0875,5.0876,5.0923,5.0924,5.0925,5.0923,5.0922,5.0921,5.092,5.0971,5.0974,5.0976,0,0,0,0,0,0,0,0,0,0,0,0,0,5.0824,5.0782,5.0874,5.088,5.0881,5.0923,5.0924,5.0925,5.0923,5.0922,5.0921,5.092,5.0971,5.0974,5.0977,5.1016,0,0,5.0986,5.0987,0,0,0,0,0,0,0,0,5.0822,5.0828,5.0879,5.088,5.0881,5.0916,5.091,5.0955,5.0923,5.0907,5.092,5.0919,5.0954,5.0959,5.097,5.1018,5.1021,5.0986,5.0988,5.0989,5.099,0,0,0,0,0,0,0,5.0819,5.0825,5.0894,5.088,5.0881,5.0881,5.0886,5.0918,5.0936,5.0908,5.0908,5.0914,5.0955,5.0967,5.0971,5.1021,5.0986,5.0989,5.0991,5.0992,5.1104,5.1105,0,0,0,0,0,0,5.0814,5.0823,5.0892,5.0895,5.0848,5.0883,5.0889,5.0906,5.0936,5.0939,5.0915,5.0914,5.0963,5.0968,5.0973,5.102,5.0989,5.0992,5.0994,5.1103,5.1104,5.1105,0,0,0,0,0,0,5.0812,5.082,5.089,5.0859,5.0868,5.0886,5.0905,5.0907,5.092,5.0941,5.0944,5.0924,5.0962,5.0969,5.1005,5.1022,5.0993,5.0996,5.1101,5.1103,5.1105,5.1115,0,0,0,0,0,0,5.0809,5.0819,5.0834,5.0859,5.087,5.0921,5.0906,5.0909,5.0925,5.0924,5.095,5.0954,5.0962,5.1,5.1008,5.1026,5.0998,5.11,5.1102,5.1104,5.1113,5.1117,5.112,0,0,0,0,0,5.0806,5.0836,5.0835,5.0844,5.0889,5.0922,5.0928,5.0936,5.0926,5.0941,5.0955,5.0953,5.1019,5.1004,5.1013,5.1031,5.1099,5.1101,5.1104,5.1112,5.1116,5.112,0,0,0,0,0,0,5.0813,5.0839,5.0839,5.0878,5.0898,5.0922,5.0941,5.0941,5.0964,5.0962,5.0972,5.0978,5.1014,5.1027,5.1009,5.1071,5.1058,5.1062,5.1061,5.1065,5.1069,5.1064,5.1001,0,0,0,0,0,5.0819,5.0843,5.0865,5.0898,5.0908,5.0923,5.0937,5.0942,5.0963,5.0972,5.0988,5.1009,5.1034,5.1051,5.1075,5.1116,5.1121,5.1133,5.1136,5.1139,5.1142,5.1163,5.1168,5.1114,5.1114,5.1114,0,0,5.0831,5.0849,5.0864,5.0899,5.0915,5.094,5.093,5.0957,5.0976,5.0976,5.101,5.1023,5.1047,5.1085,5.1103,5.1097,5.1159,5.1142,5.1144,5.1146,5.1166,5.1172,5.1176,5.1115,5.1115,5.1115,0,0,5.0867,5.0883,5.0911,5.0927,5.0951,5.0961,5.0968,5.0992,5.1,5.1035,5.1035,5.1058,5.1102,5.1119,5.1133,5.1175,5.1174,5.1183,5.1201,5.1221,5.1225,5.1229,5.1243,5.1248,5.1187,5.1187,5.1187,0,5.0879,5.0917,5.0926,5.0953,5.0968,5.0969,5.0998,5.1013,5.1044,5.1055,5.1048,5.1102,5.1119,5.116,5.117,5.1182,5.119,5.118,5.1224,5.1228,5.1232,5.1245,5.125,5.1188,5.1188,5.1188,5.1187,0,5.0931,5.0957,5.0977,5.1006,5.1024,5.1052,5.1064,5.1081,5.1085,5.1095,5.1131,5.115,5.1179,5.1189,5.1193,5.1231,5.1226,5.1222,5.1209,5.1238,5.125,5.1255,5.1189,5.1189,5.1188,5.1188,0,0,5.0971,5.1004,5.1011,5.1024,5.1051,5.1072,5.1099,5.1126,5.114,5.1162,5.1185,5.1223,5.1218,5.1234,5.124,5.1259,5.1289,5.1252,5.1252,5.1256,5.1331,5.1333,5.1339,5.1289,5.129,5.1291,5.1328,0,5.1008,5.1056,5.1065,5.1107,5.1131,5.1133,5.1157,5.1176,5.1187,5.1209,5.1222,5.1247,5.124,5.1249,5.1268,5.1281,5.1304,5.1279,5.131,5.1311,5.1302,5.1345,5.1348,5.1382,5.1333,5.1334,5.1335,0,5.1057,5.1079,5.1124,5.1147,5.1157,5.1179,5.1204,5.1225,5.1247,5.1253,5.1271,5.1275,5.1304,5.1291,5.1331,5.1313,5.1327,5.1336,5.1337,5.1339,5.1323,5.1347,5.1393,5.1398,5.1343,5.1342,5.1342,0,5.108,5.1121,5.1153,5.1164,5.1192,5.1207,5.1219,5.124,5.1256,5.1278,5.1288,5.1314,5.1328,5.1348,5.1359,5.1348,5.1397,5.1385,5.1403,5.1403,5.1412,5.1411,5.146,5.1424,5.1424,5.1423,5.1423,0,5.112,5.1147,5.1163,5.1183,5.1213,5.1223,5.1252,5.1265,5.1283,5.1305,5.1309,5.1329,5.1343,5.1365,5.1374,5.1405,5.1412,5.1418,5.1419,5.1416,5.1415,5.1424,5.1421,5.1425,5.1424,5.1424,5.1424,0,5.115,5.1162,5.1197,5.122,5.1227,5.1248,5.1268,5.1287,5.1298,5.1325,5.1332,5.135,5.1376,5.1389,5.1423,5.1429,5.1463,5.1464,5.1455,5.1456,5.1472,5.147,5.1527,5.1534,5.1495,5.1495,5.1495,0,5.1173,5.1194,5.1219,5.1234,5.1246,5.127,5.1286,5.1297,5.1313,5.1339,5.1355,5.1381,5.1403,5.1445,5.1461,5.1487,5.1487,5.1506,5.1491,5.1487,5.1486,5.1484,5.1485,5.1508,5.1508,5.1508,5.1509,0,5.1213,5.1218,5.124,5.1265,5.1283,5.1303,5.1323,5.1335,5.1349,5.1367,5.1393,5.141,5.1444,5.147,5.1497,5.151,5.1511,5.1513,5.1518,5.1515,5.1508,5.151,5.146,5.1511,5.1511,5.1511,5.1511,5.1511,5.124,5.1258,5.1278,5.1303,5.1318,5.1336,5.1355,5.1368,5.139,5.1418,5.1423,5.1452,5.1473,5.1508,5.1522,5.1545,5.1541,5.1549,5.155,5.1552,5.1552,5.1506,5.155,5.155,5.155,5.155,5.155,0,5.1279,5.1292,5.1314,5.1341,5.136,5.136,5.1382,5.1398,5.1422,5.1442,5.1463,5.1493,5.1519,5.1536,5.1562,5.1577,5.1578,5.1583,5.1581,5.1584,5.1555,5.1547,5.1581,5.1581,5.1581,5.1581,5.1581,5.1581,5.1301,5.1331,5.1338,5.1376,5.1389,5.1416,5.1428,5.1445,5.146,5.1494,5.1515,5.1526,5.1545,5.1572,5.1595,5.16,5.1609,5.1613,5.1618,5.159,5.1586,5.1583,5.1576,5.1616,5.1616,5.1645,5.1645,5.1646]},{"header":{"parameterUnit":"m.s-1","parameterCategory":1,"la1":30.2991,"la2":30.254,"lo1":-89.0895,"lo2":-89.0444,"dy":0.0017,"dx":0.0017,"nx":28,"ny":28,"refTime":"2023-08-09T03:00:00:Z","depth":0,"parameterNumber":3,"parameterNumberName":"V-component_of_WINDS"},"data":[0,0,0,0,0,0,0,0,0,0,0,0,0,0,0,0,0,0,0,0,0,0,0,0,0,0,0,0,0,0,0,0,0,0,0,0,0,0,0,0,0,0,0,0,0,0,0,0,0,0,0,0,0,0,0,0,0,0,3.1579,3.1579,0,3.1567,3.1567,3.1567,3.158,3.1581,3.1581,3.1582,3.1566,3.1566,3.1565,0,0,0,0,0,0,0,0,0,0,0,0,0,3.1608,3.1607,3.1579,3.1579,3.1579,3.1567,3.1567,3.1567,3.158,3.1581,3.1582,3.1582,3.1567,3.1566,3.1565,0,0,0,0,0,0,0,0,0,0,0,0,0,3.1596,3.1607,3.1579,3.1584,3.1584,3.1567,3.1567,3.1567,3.158,3.1581,3.1582,3.1582,3.1567,3.1566,3.1564,3.154,0,0,3.156,3.156,0,0,0,0,0,0,0,0,3.1596,3.1594,3.1584,3.1584,3.1584,3.1576,3.1571,3.1558,3.158,3.1582,3.1582,3.1583,3.1569,3.1567,3.1563,3.154,3.1539,3.156,3.1559,3.1559,3.1558,0,0,0,0,0,0,0,3.1597,3.1595,3.1574,3.1583,3.1584,3.1585,3.1584,3.1569,3.1571,3.1582,3.1583,3.1581,3.1569,3.1565,3.1563,3.1539,3.156,3.1559,3.1558,3.1558,3.149,3.1489,0,0,0,0,0,0,3.1598,3.1596,3.1575,3.1574,3.1592,3.1584,3.1583,3.1578,3.1571,3.1571,3.158,3.1582,3.1566,3.1565,3.1563,3.1531,3.1559,3.1558,3.1557,3.1491,3.149,3.1489,0,0,0,0,0,0,3.1599,3.1596,3.1575,3.1585,3.1582,3.1583,3.1577,3.1577,3.1573,3.157,3.157,3.1576,3.1567,3.1564,3.1545,3.1531,3.1557,3.1556,3.1492,3.149,3.1489,3.1469,0,0,0,0,0,0,3.1599,3.1596,3.1589,3.1585,3.1582,3.1559,3.1576,3.1576,3.1571,3.1572,3.1566,3.1566,3.1567,3.1547,3.1544,3.1529,3.1555,3.1493,3.1491,3.149,3.1471,3.1467,3.1464,0,0,0,0,0,3.16,3.1584,3.1588,3.1586,3.1573,3.1559,3.1557,3.156,3.157,3.1561,3.1558,3.1566,3.1533,3.1545,3.1541,3.1526,3.1494,3.1492,3.149,3.1473,3.1468,3.1464,0,0,0,0,0,0,3.1586,3.1584,3.1588,3.1571,3.1565,3.1561,3.155,3.1556,3.1546,3.1548,3.1552,3.155,3.1529,3.1526,3.1539,3.15,3.1515,3.1512,3.1503,3.1499,3.1495,3.1496,3.1554,0,0,0,0,0,3.1581,3.1571,3.1569,3.1553,3.155,3.155,3.1545,3.1547,3.1541,3.1538,3.1535,3.1527,3.1515,3.1507,3.1496,3.1471,3.1468,3.1458,3.1455,3.1452,3.1449,3.1431,3.1426,3.1481,3.1481,3.1481,0,0,3.157,3.1567,3.1561,3.155,3.1546,3.1534,3.1548,3.1536,3.1526,3.1536,3.1517,3.1514,3.1505,3.1482,3.1472,3.1479,3.1433,3.1449,3.1447,3.1445,3.1428,3.1423,3.1419,3.148,3.148,3.148,0,0,3.1544,3.1542,3.1527,3.1522,3.1515,3.1515,3.1511,3.1506,3.1504,3.1485,3.1492,3.1479,3.1458,3.1451,3.1444,3.141,3.1415,3.1406,3.1387,3.137,3.1366,3.1362,3.1347,3.1342,3.1404,3.1403,3.1403,0,3.1531,3.1514,3.1519,3.1504,3.1498,3.1506,3.1489,3.1484,3.1473,3.1467,3.1476,3.1447,3.1443,3.1416,3.1407,3.1403,3.1396,3.1407,3.1366,3.1363,3.1359,3.1344,3.1339,3.1402,3.1402,3.1403,3.1403,0,3.1497,3.1485,3.1473,3.1462,3.1455,3.1439,3.1439,3.143,3.1432,3.143,3.1408,3.1402,3.1388,3.1382,3.1385,3.1354,3.1358,3.1366,3.1381,3.1352,3.1339,3.1333,3.1401,3.1401,3.1401,3.1402,0,0,3.1463,3.1453,3.1448,3.1442,3.1433,3.1423,3.1406,3.1392,3.1383,3.1374,3.1358,3.1339,3.1345,3.1337,3.1339,3.1324,3.1293,3.1334,3.1333,3.1324,3.1255,3.1248,3.1241,3.1297,3.1296,3.1295,3.1255,0,3.1435,3.1407,3.1409,3.1381,3.1368,3.1374,3.1359,3.135,3.1347,3.1333,3.1329,3.1314,3.1325,3.132,3.1306,3.13,3.1279,3.1303,3.1279,3.1278,3.128,3.1235,3.1228,3.1191,3.125,3.1249,3.1248,0,3.1399,3.1388,3.136,3.1349,3.1344,3.133,3.1316,3.1304,3.1292,3.1291,3.128,3.1283,3.1262,3.1277,3.1247,3.1263,3.1253,3.1248,3.1247,3.1244,3.1261,3.1228,3.1179,3.1173,3.124,3.1241,3.1242,0,3.1374,3.1352,3.1332,3.1326,3.1315,3.1304,3.1298,3.1288,3.1279,3.1265,3.1258,3.1242,3.1233,3.1219,3.1216,3.1228,3.1184,3.12,3.118,3.1179,3.117,3.117,3.1116,3.1166,3.1166,3.1166,3.1166,0,3.1341,3.1323,3.132,3.1307,3.1285,3.1286,3.1263,3.1258,3.1248,3.1232,3.1236,3.122,3.1218,3.1201,3.1198,3.1171,3.1167,3.1163,3.1162,3.1162,3.1162,3.1155,3.1156,3.1165,3.1165,3.1165,3.1166,0,3.131,3.1308,3.1285,3.1275,3.1272,3.1256,3.1246,3.1232,3.1227,3.1207,3.1202,3.1195,3.1174,3.117,3.1146,3.1143,3.111,3.1113,3.1115,3.1114,3.1093,3.1094,3.1031,3.1021,3.1079,3.1079,3.1078,0,3.1289,3.1275,3.1262,3.1252,3.1246,3.123,3.1219,3.1218,3.1206,3.119,3.1177,3.1157,3.1141,3.1107,3.1098,3.1078,3.1079,3.1058,3.1076,3.1075,3.1076,3.1076,3.1073,3.1055,3.1054,3.1054,3.1053,0,3.1251,3.1249,3.1235,3.1219,3.1206,3.1194,3.1181,3.1172,3.1168,3.1154,3.1133,3.1121,3.1095,3.1073,3.1053,3.1044,3.1046,3.1047,3.1041,3.104,3.104,3.1037,3.1103,3.1049,3.1049,3.105,3.105,3.105,3.1223,3.1209,3.1197,3.118,3.117,3.1157,3.1142,3.1135,3.1118,3.1098,3.1097,3.1073,3.1058,3.103,3.102,3.0999,3.1005,3.0997,3.0995,3.0992,3.0989,3.1044,3.0996,3.0996,3.0996,3.0996,3.0996,0,3.1183,3.1175,3.1159,3.1141,3.1126,3.113,3.1115,3.1102,3.1081,3.1067,3.105,3.1024,3.1002,3.099,3.0968,3.0953,3.0953,3.0947,3.0947,3.0944,3.0986,3.0993,3.0947,3.0947,3.0947,3.0947,3.0947,3.0947,3.116,3.1136,3.1132,3.1101,3.1093,3.107,3.1061,3.1048,3.1036,3.1007,3.0989,3.0981,3.0967,3.0942,3.0921,3.0918,3.0908,3.0901,3.0898,3.0937,3.0942,3.0947,3.0953,3.0899,3.0899,3.0857,3.0857,3.0856]}]]